Date,TemperatureHighF,TemperatureAvgF,TemperatureLowF,DewpointHighF,DewpointAvgF,DewpointLowF,HumidityHigh,HumidityAvg,HumidityLow,PressureMaxIn,PressureMinIn,WindSpeedMaxMPH,WindSpeedAvgMPH,GustSpeedMaxMPH,PrecipitationSumIn
2013-3-1,41.2,37.4,34.5,32.0,29.9,27.2,89,74,65,30.06,30.01,5,2,13,0.00
2013-3-2,37.8,35.0,32.2,31.5,28.5,25.2,89,77,66,30.11,30.00,6,2,14,0.00
2013-3-3,43.2,33.8,28.0,25.5,20.9,18.3,76,60,40,30.14,30.09,5,2,16,0.00
2013-3-4,54.6,40.4,25.4,31.8,24.8,18.5,83,57,32,30.23,30.00,3,1,10,0.00
2013-3-5,61.0,50.9,37.3,55.1,42.6,28.0,94,74,51,30.04,29.64,12,5,28,0.74
2013-3-6,44.4,36.3,32.8,30.6,26.2,20.9,88,67,54,30.27,29.93,8,4,23,0.00
2013-3-7,52.8,39.7,32.4,34.2,29.5,26.4,82,68,47,30.37,30.26,5,2,13,0.00
2013-3-8,60.2,42.4,28.0,31.5,27.6,24.0,90,61,26,30.41,30.27,4,1,10,0.00
2013-3-9,59.8,44.1,36.3,34.9,31.1,28.1,79,63,35,30.33,30.21,4,1,13,0.00
2013-3-10,63.2,63.0,62.8,42.3,41.7,40.9,47,46,44,29.98,29.96,5,4,14,0.00
2013-3-11,62.3,55.9,43.0,54.6,49.4,38.5,94,80,49,29.99,29.75,6,3,26,0.91
2013-3-12,58.1,46.2,38.2,38.2,33.3,30.6,84,63,37,30.13,29.91,5,2,16,0.00
2013-3-13,50.4,43.3,34.1,31.3,26.3,20.5,70,52,35,30.35,30.13,8,3,20,0.00
2013-3-14,56.6,38.9,26.2,36.1,21.4,16.5,83,53,23,30.45,30.27,3,2,12,0.00
2013-3-15,74.3,54.0,32.9,46.6,39.6,31.6,95,63,36,30.30,29.96,10,3,22,0.00
2013-3-16,75.3,66.9,56.2,50.0,46.1,43.3,64,48,36,29.95,29.82,9,6,23,0.00
2013-3-17,69.8,63.9,55.2,55.0,49.9,45.7,79,61,50,29.95,29.84,7,4,24,0.00
2013-3-18,61.0,57.5,52.4,56.5,54.0,50.9,96,88,73,29.88,29.75,5,2,23,1.01
2013-3-19,63.1,51.7,39.6,52.5,34.5,21.1,95,58,24,30.12,29.88,6,2,17,0.00
2013-3-20,57.2,47.0,37.7,31.0,22.3,15.4,71,40,22,30.16,29.93,7,2,21,0.00
2013-3-21,47.0,36.6,25.8,30.1,16.8,9.9,73,47,27,30.08,29.95,5,2,15,0.00
2013-3-22,48.4,40.1,32.7,35.7,24.1,17.0,74,53,43,30.09,30.00,2,0,10,0.00
2013-3-23,52.1,44.7,39.1,47.9,41.5,34.9,95,89,75,30.03,29.77,1,0,6,0.33
2013-3-24,58.1,51.1,42.4,53.2,46.8,32.2,97,86,62,29.84,29.43,12,4,30,2.15
2013-3-25,41.7,36.6,33.2,30.8,25.8,23.8,79,65,57,30.13,29.70,11,7,29,0.00
2013-3-26,39.2,35.6,32.0,28.7,26.9,25.4,84,71,60,30.36,30.11,6,3,17,0.00
2013-3-27,53.4,40.8,29.3,28.7,26.5,24.2,82,59,36,30.43,30.28,5,2,14,0.00
2013-3-28,62.7,45.9,28.3,33.5,29.6,24.9,89,57,31,30.41,30.26,4,1,12,0.00
2013-3-29,59.4,47.5,37.9,41.6,35.4,31.7,84,64,40,30.36,30.21,2,1,7,0.00
2013-3-30,68.4,52.8,42.5,55.0,46.7,40.9,95,82,45,30.24,30.00,4,1,22,0.44
2013-3-31,65.5,58.9,54.5,58.7,55.3,53.1,96,88,73,29.99,29.84,5,2,14,0.35